Fort Collins, CO

1:44 AM MDT on May 29, 2017 (GMT -0600)
Fort Collins-Loveland Municipal

Weather History for KFNL - April, 2013

Change the Weather History Date:

Friday, April 19, 2013

  Actual Average Record
Temperature  
Mean Temperature 35 °F -  
Max Temperature 53 °F - 78 °F (2008)
Min Temperature 17 °F - 17 °F (2013)
Degree Days  
Heating Degree Days 30    
Month to date heating degree days  
Cooling Degree Days 0    
Month to date cooling degree days  
Moisture  
Dew Point 22 °F    
Average Humidity 61    
Maximum Humidity 86    
Minimum Humidity 35    
Precipitation  
Precipitation 0.03 in - 0.29 in (1998)
Sea Level Pressure  
Sea Level Pressure 30.03 in    
Wind  
Wind Speed 4 mph (ESE)    
Max Wind Speed 10 mph    
Max Gust Speed -    
Visibility 10 miles    
Events      
T = Trace of Precipitation, MM = Missing Value Source: NWS Daily Summary

Daily Weather History Graph

Daily Weather History Graph

Search for Another Location

Airport or City:

Trip Planner

Search our weather history database for the weather conditions in past years. The results will help you decide how hot, cold, wet, or windy it might be!

Date:

Astronomy

Apr. 19, 2013 Rise Set
Actual Time 6:15 AM MDT 7:43 PM MDT
Civil Twilight 5:46 AM MDT 8:12 PM MDT
Nautical Twilight 5:12 AM MDT 8:46 PM MDT
Astronomical Twilight 4:36 AM MDT 9:23 PM MDT
Moon 1:29 PM MDT (4/19) 2:33 AM MDT (4/19)
Length of Visible Light 14h 25m
Length of Day
13h 28m
Waxing Gibbous, 62% of the Moon is Illuminated
Apr 19
Waxing Gibbous
Apr 25
Full
May 2
Last Quarter
May 9
New
May 17
First Quarter

Hourly Weather History & Observations

Time (MDT) Temp. Windchill Dew Point Humidity Pressure Visibility Wind Dir Wind Speed Gust Speed Precip Events Conditions
12:15 AM 26.6 °F 18.2 °F 15.8 °F 64% 30.11 in 10.0 mi SE 8.1 mph - N/A   Overcast
12:55 AM 24.8 °F - 15.8 °F 69% 30.11 in 10.0 mi Calm Calm - N/A   Scattered Clouds
1:15 AM 23.0 °F - 15.8 °F 74% 30.10 in 10.0 mi Calm Calm - N/A   Scattered Clouds
1:35 AM 24.8 °F - 15.8 °F 69% 30.10 in 10.0 mi Calm Calm - N/A   Clear
1:55 AM 24.8 °F - 14.0 °F 64% 30.10 in 10.0 mi Calm Calm - N/A   Partly Cloudy
2:15 AM 21.2 °F 13.6 °F 17.6 °F 86% 30.09 in 10.0 mi North 5.8 mph - N/A   Clear
2:35 AM 21.2 °F 14.9 °F 14.0 °F 74% 30.08 in 10.0 mi North 4.6 mph - N/A   Clear
2:55 AM 19.4 °F 14.3 °F 12.2 °F 74% 30.08 in 10.0 mi WNW 3.5 mph - N/A   Clear
3:15 AM 19.4 °F 12.8 °F 14.0 °F 80% 30.08 in 10.0 mi SSW 4.6 mph - N/A   Scattered Clouds
3:35 AM 19.4 °F - 15.8 °F 86% 30.08 in 10.0 mi Calm Calm - N/A   Scattered Clouds
3:55 AM 21.2 °F 16.4 °F 17.6 °F 86% 30.07 in 10.0 mi SSE 3.5 mph - N/A   Clear
4:15 AM 23.0 °F - 15.8 °F 74% 30.07 in 10.0 mi Calm Calm - N/A   Clear
4:55 AM 24.8 °F 19.1 °F 15.8 °F 69% 30.07 in 10.0 mi NNE 4.6 mph - N/A   Clear
5:15 AM 19.4 °F 14.3 °F 12.2 °F 74% 30.07 in 10.0 mi SSE 3.5 mph - N/A   Clear
5:35 AM 23.0 °F - 14.0 °F 68% 30.07 in 10.0 mi Calm Calm - N/A   Clear
5:55 AM 21.2 °F 12.6 °F 14.0 °F 74% 30.07 in 10.0 mi South 6.9 mph - N/A   Clear
6:15 AM 19.4 °F 12.8 °F 12.2 °F 74% 30.07 in 10.0 mi SSE 4.6 mph - N/A   Clear
6:35 AM 26.6 °F 21.2 °F 14.0 °F 59% 30.07 in 10.0 mi SE 4.6 mph - N/A   Clear
6:55 AM 17.6 °F 8.2 °F 10.4 °F 73% 30.07 in 10.0 mi South 6.9 mph - N/A   Clear
7:15 AM 21.2 °F 11.7 °F 14.0 °F 74% 30.07 in 10.0 mi South 8.1 mph - N/A   Clear
7:35 AM 23.0 °F 17.0 °F 15.8 °F 74% 30.08 in 10.0 mi South 4.6 mph - N/A   Clear
7:55 AM 26.6 °F 21.2 °F 17.6 °F 69% 30.07 in 10.0 mi SSE 4.6 mph - N/A   Clear
8:15 AM 30.2 °F 25.4 °F 17.6 °F 60% 30.07 in 10.0 mi SE 4.6 mph - N/A   Clear
8:55 AM 32.0 °F 28.7 °F 17.6 °F 55% 30.08 in 10.0 mi SSE 3.5 mph - N/A   Clear
9:35 AM 30.2 °F 26.7 °F 19.4 °F 64% 30.08 in 10.0 mi SW 3.5 mph - 0.01 in   Clear
9:55 AM 30.2 °F - 19.4 °F 64% 30.07 in 10.0 mi Calm Calm - 0.01 in   Clear
10:15 AM 30.2 °F 24.3 °F 21.2 °F 69% 30.07 in 10.0 mi SSW 5.8 mph - 0.01 in   Clear
10:35 AM 33.8 °F 27.0 °F 23.0 °F 65% 30.07 in 10.0 mi South 8.1 mph - 0.01 in   Clear
10:55 AM 35.6 °F 28.0 °F 24.8 °F 65% 30.06 in 10.0 mi South 10.4 mph - 0.02 in   Clear
11:15 AM 37.4 °F 30.8 °F 24.8 °F 60% 30.06 in 10.0 mi South 9.2 mph - N/A   Clear
11:35 AM 37.4 °F 31.4 °F 24.8 °F 60% 30.06 in 10.0 mi South 8.1 mph - N/A   Clear
11:55 AM 39.2 °F 32.5 °F 26.6 °F 61% 30.05 in 10.0 mi South 10.4 mph - N/A   Clear
12:15 PM 39.2 °F 34.2 °F 26.6 °F 61% 30.04 in 10.0 mi South 6.9 mph - N/A   Clear
12:35 PM 39.2 °F 35.0 °F 24.8 °F 56% 30.04 in 10.0 mi SSW 5.8 mph - N/A   Clear
12:55 PM 39.2 °F 37.0 °F 26.6 °F 61% 30.03 in 10.0 mi SSW 3.5 mph - N/A   Clear
1:15 PM 42.8 °F 41.1 °F 26.6 °F 53% 30.03 in 10.0 mi SSW 3.5 mph - N/A   Clear
1:35 PM 42.8 °F - 28.4 °F 57% 30.03 in 10.0 mi Calm Calm - N/A   Clear
1:55 PM 44.6 °F - 26.6 °F 49% 30.02 in 10.0 mi Calm Calm - N/A   Clear
2:15 PM 48.2 °F - 26.6 °F 43% 30.01 in 10.0 mi SE 8.1 mph - N/A   Clear
2:35 PM 48.2 °F - 26.6 °F 43% 30.00 in 10.0 mi SE 9.2 mph - N/A   Clear
3:35 PM 50.0 °F - 26.6 °F 40% 29.99 in 10.0 mi ESE 5.8 mph - N/A   Clear
3:55 PM 51.8 °F - 26.6 °F 38% 29.99 in 10.0 mi East 3.5 mph - N/A   Scattered Clouds
4:15 PM 48.2 °F - 24.8 °F 40% 29.98 in 10.0 mi Calm Calm - N/A   Scattered Clouds
4:35 PM 51.8 °F - 24.8 °F 35% 29.97 in 10.0 mi East 3.5 mph - N/A   Scattered Clouds
4:55 PM 51.8 °F - 24.8 °F 35% 29.96 in 10.0 mi East 5.8 mph - N/A   Scattered Clouds
5:15 PM 53.6 °F - 28.4 °F 38% 29.97 in 10.0 mi ENE 4.6 mph - N/A   Clear
5:35 PM 53.6 °F - 26.6 °F 35% 29.97 in 10.0 mi ENE 3.5 mph - N/A   Clear
5:55 PM 53.6 °F - 26.6 °F 35% 29.96 in 10.0 mi ENE 5.8 mph - N/A   Clear
6:15 PM 51.8 °F - 26.6 °F 38% 29.96 in 10.0 mi NNE 5.8 mph - N/A   Clear
6:35 PM 44.6 °F 39.7 °F 28.4 °F 53% 29.96 in 10.0 mi North 9.2 mph - N/A   Clear
6:55 PM 44.6 °F 40.2 °F 30.2 °F 57% 29.96 in 10.0 mi North 8.1 mph - N/A   Clear
7:15 PM 42.8 °F 37.5 °F 30.2 °F 61% 29.96 in 10.0 mi North 9.2 mph - N/A   Clear
7:35 PM 42.8 °F 38.6 °F 28.4 °F 57% 29.96 in 10.0 mi North 6.9 mph - N/A   Clear
7:55 PM 42.8 °F 38.6 °F 28.4 °F 57% 29.96 in 10.0 mi North 6.9 mph - N/A   Clear
8:15 PM 42.8 °F 39.3 °F 26.6 °F 53% 29.96 in 10.0 mi North 5.8 mph - N/A   Clear
8:35 PM 39.2 °F - 26.6 °F 61% 29.97 in 10.0 mi Calm Calm - N/A   Clear
8:55 PM 39.2 °F - 28.4 °F 65% 29.97 in 10.0 mi Calm Calm - N/A   Clear
9:15 PM 41.0 °F 39.0 °F 26.6 °F 57% 29.98 in 10.0 mi North 3.5 mph - N/A   Clear
9:35 PM 41.0 °F 38.0 °F 26.6 °F 57% 29.99 in 10.0 mi North 4.6 mph - N/A   Clear
9:55 PM 41.0 °F 39.0 °F 26.6 °F 57% 29.99 in 10.0 mi North 3.5 mph - N/A   Partly Cloudy
10:15 PM 41.0 °F 39.0 °F 26.6 °F 57% 29.99 in 10.0 mi NE 3.5 mph - N/A   Partly Cloudy
10:35 PM 41.0 °F 37.1 °F 28.4 °F 61% 29.99 in 10.0 mi ENE 5.8 mph - N/A   Scattered Clouds
10:55 PM 39.2 °F 34.2 °F 28.4 °F 65% 29.98 in 10.0 mi East 6.9 mph - N/A   Partly Cloudy
11:15 PM 37.4 °F - 28.4 °F 70% 29.97 in 10.0 mi Calm Calm - N/A   Partly Cloudy
11:35 PM 37.4 °F 34.9 °F 28.4 °F 70% 29.97 in 10.0 mi NE 3.5 mph - N/A   Scattered Clouds